FENGYUN 1C DEB, 30802

Orbit data source: Space-Track

FENGYUN 1C DEB, 30802 is space debris in SSO originally from a launch on Mon, 10 May 1999 UTC launched from the Taiyaun Space Center, China (TSC). Fengyun 1C debris stems from the Chinese weather satellite Fengyun-1C, which was intentionally destroyed by a Chinese anti-satellite missile in 2007. This event dramatically increased the amount of space debris, with thousands of trackable fragments posing hazards to satellites and human spaceflight. The Fengyun 1C debris cloud has become a focal point in discussions about space sustainability and the need for international regulations to prevent the creation of new debris.

Loading next visibility...
Identifier
30802, 1999-025AUL
Orbit
SSO
Country
Flag of CNCN / PRC
Related business
Manufacturer
Unknown
Mission
Spacecraft
Bus & Motor
Unknown
Mass
Unknown
Launch date (UTC)
1999-05-10 (27 years ago)
Launch vehicle
Unknown
Launch site
Taiyaun Space Center, China (TSC)
Object type
Payload
Rocket body
Debris
Shape & HBR
Unknown shape, 0.050 m
Radar Cross Section
Medium (>0.1 m² and <1 m²)

Expand to show TLE details & history
Last TLE update: 18 hours ago

TLE from 18 hours ago
0 FENGYUN 1C DEB
1 30802U 99025AUL 26266.26461941  .00002396  00000-0  86131-3 0  9995
2 30802  98.8341   3.9703 0017229 279.0542 100.4411 14.34697495 12781
Epoch: 2026-09-23T06:21Z
TLE epoch observation values (Epoch: 2026-09-23T06:21:03.117Z)
Latitude
19.44711°
Longitude
-96.53984°
Altitude
780.797 km
Speed
7.464 km/s
True Right ascension
00h 03m 21s
True Declination
19° 20' 23"
Sunlit
Object was in full shadow at epoch
Visualization orbit readout
Latitude
Unknown
Longitude
Unknown
Altitude
Unknown
Speed
Unknown
Apparent Right ascension
Unknown
Apparent Declination
Unknown
Sunlit
N/A
Visualization observer readout
Local Sidereal Time
17:52:48
Azimuth
Unknown
Elevation
Unknown
Doppler factor
Unknown
Orbital elements
Apogee altitude
785.538 km
Perigee altitude
760.896 km
Semi-major axis
7,151.354 km
Eccentricity
0.00172
Inclination
98.8341°
RAAN
3.9703°
Arg. of periapsis
279.0542°
True anomaly
100.63518°
Mean anomaly
100.4411°
Eccentric anomaly
100.53815°
Mean motion
3.5889 °/min
Orbital period
100.31 mins
BSTAR
0.00086131
Loading maneuver chart data...
Computing Atmospheric mass density...
Loading historical data...
Loading historical data...
Loading historical data...
Loading historical data...
Loading historical data...
Loading historical data...
Loading historical data...

Documentation

Showing up to 5 results
|